Location: Burland Observatory
(39.4088°N, 105.4217°W)
Time: 23:38:33
(UTC-07:00)

SR - Pass Details

Date: 09 December 2019
Orbit: 574 x 882 km, 66.7° (Epoch: 27 January)

Event Time Altitude Azimuth Distance (km) Brightness Sun altitude
Rises 17:24:19 0° 339° (NNW) 3,482 ? -8.9°
Reaches altitude 10° 17:27:19 10° 353° (N) 2,528 ? -9.4°
Maximum altitude 17:32:07 25° 47° (NE) 1,649 ? -10.3°
Drops below altitude 10° 17:36:43 10° 102° (ESE) 2,420 ? -11.1°
Enters shadow 17:37:21 - 106° (ESE) 2,606 ? -11.2°
Sets 17:39:30 0° 116° (ESE) 3,302 - -11.6°
